This is the latest recevied weather packets stored in our database for station/object N5SRF. If no packets are shown the sender has not sent any weather packets the latest 10 day(s).
| Time | Temp. | Humidity | Pressure | Rain* | Wind** | Luminosity | Snow |
|---|---|---|---|---|---|---|---|
| 1777429685 | 25° C | 93% | 1016.3 hPa | 0 mm | - | 0 W/m² | - |
| 1777429381 | 25° C | 93% | 1016.3 hPa | 0 mm | - | 0 W/m² | - |
| 1777429076 | 25° C | 93% | 1016.3 hPa | 0 mm | - | 0 W/m² | - |
| 1777428773 | 25° C | 93% | 1016.2 hPa | 0 mm | - | 0 W/m² | - |
| 1777428469 | 25° C | 92% | 1016.4 hPa | 0 mm | - | 0 W/m² | - |
| 1777428159 | 25° C | 92% | 1016.2 hPa | 0 mm | - | 0 W/m² | - |
| 1777427855 | 25.56° C | 92% | 1015.9 hPa | 0 mm | - | 0 W/m² | - |
| 1777427552 | 25.56° C | 92% | 1015.6 hPa | 0 mm | - | 0 W/m² | - |
| 1777427248 | 25.56° C | 91% | 1015.6 hPa | 0 mm | - | 0 W/m² | - |
| 1777426946 | 25.56° C | 91% | 1015.5 hPa | 0 mm | - | 0 W/m² | - |
| 1777426643 | 25.56° C | 91% | 1015.8 hPa | 0 mm | - | 0 W/m² | - |
| 1777426339 | 25.56° C | 90% | 1015.8 hPa | 0 mm | - | 0 W/m² | - |
| 1777426034 | 26.11° C | 90% | 1015.9 hPa | 0 mm | - | 0 W/m² | - |
| 1777425729 | 26.11° C | 89% | 1015.8 hPa | 0 mm | - | 0 W/m² | - |
| 1777425424 | 26.11° C | 89% | 1015.6 hPa | 0 mm | - | 0 W/m² | - |
| 1777425121 | 26.11° C | 88% | 1015.6 hPa | 0 mm | - | 0 W/m² | - |
| 1777424818 | 26.11° C | 88% | 1015.5 hPa | 0 mm | - | 1 W/m² | - |
| 1777424513 | 26.67° C | 87% | 1015.7 hPa | 0 mm | - | 1 W/m² | - |
| 1777424208 | 26.67° C | 87% | 1015.5 hPa | 0 mm | - | 2 W/m² | - |
| 1777423906 | 26.67° C | 87% | 1015.2 hPa | 0 mm | - | 4 W/m² | - |
| 1777423602 | 26.67° C | 86% | 1015.1 hPa | 0 mm | - | 6 W/m² | - |
| 1777423297 | 27.22° C | 85% | 1014.8 hPa | 0 mm | - | 9 W/m² | - |
| 1777422993 | 27.22° C | 85% | 1014.8 hPa | 0 mm | - | 14 W/m² | - |
| 1777422688 | 27.78° C | 84% | 1014.8 hPa | 0 mm | - | 23 W/m² | - |
| 1777422383 | 27.78° C | 83% | 1014.8 hPa | 0 mm | - | 35 W/m² | - |
* Rain latest hour (hover to see other rain measurements)
** Current wind speed in m/s (hover to see current wind gust speed)